Location: *
(41.7492°S, 135.4150°W)
Time: 22:34:42
(UTC+00:00)

METEOR M2 - Pass Details

Date: 04 July 2022
Orbit: 818 x 827 km, 98.4° (Epoch: 17 August)

Event Time Altitude Azimuth Distance (km) Brightness Sun altitude
Rises 14:47:20 0° 24° (NNE) 3,348 ? -18.4°
Reaches altitude 10° 14:49:41 10° 26° (NNE) 2,422 ? -17.9°
Maximum altitude 14:54:59 65° 107° (ESE) 910 ? -17.0°
Drops below altitude 10° 15:00:22 10° 187° (S) 2,448 ? -16.0°
Sets 15:02:45 0° 190° (S) 3,388 ? -15.6°
